STARLINK-4586, 53636

Orbit data source: Space-Track

STARLINK-4586, 53636 is a payload satellite owned by SpaceX/Seattle (US) in LEO that was launched on Sun, 28 Aug 2022 UTC via an FALCON 9 launch vehicle from the Air Force Eastern Test Range (AFETR). Payload-class satellites include a variety of spacecraft equipped with specific instruments for various scientific and technological missions. These include communications satellites like Starlink; space stations such as the ISS; scientific satellites like the Hubble; Earth observation satellites from companies like Planet Labs, Umbra, and HawkEye 360; GPS; miniature CubeSats for education and research; and military/defense satellites.

Loading next visibility...
Identifier
53636, 2022-104BA
Orbit
LEO
Country
Flag of USUS
Related business
Manufacturer
SpaceX/Seattle
Mission
Operational Commercial Communications
Bus & Motor
STARLINK, Unknown motor
Mass
300 kg wet, ~290 kg dry
Launch date (UTC)
2022-08-28 (3 years ago)
Launch vehicle
FALCON 9
Launch site
Air Force Eastern Test Range (AFETR)
Object type
Payload
Rocket body
Debris
Shape & HBR
Box + 1 Pan, 10.1 m
Radar Cross Section
13.562 m², Large (>1 m²)

Expand to show TLE details & history
Last TLE update: 17 hours ago

TLE from 17 hours ago
0 STARLINK-4586
1 53636U 22104BA  25286.94093526  .00025004  00000-0  15807-2 0  9997
2 53636  53.2196 162.7306 0000238  64.8135 295.2882 15.08906986174073
Epoch: 2025-10-13T22:34Z
TLE epoch observation values (Epoch: 2025-10-13T22:34:56.806Z)
Latitude
-0.00001°
Longitude
161.2574°
Altitude
540.366 km
Speed
7.593 km/s
True Right ascension
10h 50m 55s
True Declination
0° 00' 00"
Sunlit
Object was in daylight at epoch
Visualization orbit readout
Latitude
Unknown
Longitude
Unknown
Altitude
Unknown
Speed
Unknown
Apparent Right ascension
Unknown
Apparent Declination
Unknown
Sunlit
N/A
Visualization observer readout
Local Sidereal Time
09:57:37
Azimuth
Unknown
Elevation
Unknown
Doppler factor
Unknown
Orbital elements
Apogee altitude
539.948 km
Perigee altitude
539.619 km
Semi-major axis
6,917.92 km
Eccentricity
0.00002
Inclination
53.2196°
RAAN
162.7306°
Arg. of periapsis
64.8135°
True anomaly
295.28573°
Mean anomaly
295.2882°
Eccentric anomaly
295.28697°
Mean motion
3.77207 °/min
Orbital period
95.44 mins
BSTAR
0.0015807
Loading maneuver chart data...
Computing Atmospheric mass density...
Loading historical data...
Loading historical data...
Loading historical data...
Loading historical data...
Loading historical data...
Loading historical data...
Loading historical data...

Documentation

Showing up to 5 results
|